Regional Weather Roundup
Issued by NWS

Home | Current Version | Previous Version | Graphics & Text | Print | Product List | Glossary On
Versions: 1 2 3 4 5 6 7 8 9 10 11 12 13 14 15 16 17 18 19 20 21 22 23 24 25 26 27 28 29 30 31 32 33 34 35 36 37 38 39 40 41 42 43 44 45 46 47 48 49 50
000
ASUS44 KMEG 271910
RWRTN
TENNESSEE HOURLY STATE WEATHER ROUNDUP
NATIONAL WEATHER SERVICE MEMPHIS TN
200 PM CDT FRI MAR 27 2015

TNZ002-004-019-021-049-052-054-088>092-272000-
WEST TENNESSEE

CITY           SKY/WX    TMP DP  RH WIND       PRES   REMARKS
MEMPHIS INTL   LGT RAIN  47  37  68 N14G21    30.11S
NWS MEMPHIS      N/A    N/A N/A N/A MISG        N/A
JACKSON        CLOUDY    47  34  60 NW10      30.07S
DYERSBURG      CLOUDY    45  25  45 N16       30.12S
UNION CITY     CLOUDY    39  37  93 NW13      30.09F WCI  32
PARIS          CLOUDY    41  30  65 N13       30.07S
LEXINGTON      PTSUNNY   46  28  49 W7        30.03S
SAVANNAH       PTSUNNY   48  34  57 NW10      30.05F
$$

TNZ008-025-027-028-033-062-065-066-272000-
NORTH MIDDLE TENNESSEE

CITY           SKY/WX    TMP DP  RH WIND       PRES   REMARKS
NASHVILLE      CLOUDY    48  28  46 N14       30.01S
CLARKSVILLE    CLOUDY    44  32  62 NW15      30.04R
SMYRNA         PTSUNNY   47  30  51 N15       30.01S
COOKEVILLE     MOSUNNY   48  28  46 NW12      29.94S
CROSSVILLE     CLOUDY    45  24  43 NW15      29.91S
$$

TNZ061-075-076-078-094-096-097-272000-
SOUTH MIDDLE TENNESSEE

CITY           SKY/WX    TMP DP  RH WIND       PRES   REMARKS
FAYETTEVILLE   MOSUNNY   46  27  46 N9        29.97S
TULLAHOMA      MOSUNNY   45  28  53 NW16      29.98R
WINCHESTER     PTSUNNY   48  30  49 NW10      29.95F
MCMINNVILLE    MOSUNNY   45  28  53 NW10      29.96R
COLUMBIA       PTSUNNY   46  32  57 NW5       29.99S
SHELBYVILLE    CLOUDY    48  30  49 NW10      29.99F
$$

TNZ017-018-042-046-047-272000-
NORTHEAST TENNESSEE

CITY           SKY/WX    TMP DP  RH WIND       PRES   REMARKS
TRI CITIES     PTSUNNY   45  28  51 NW9       29.84F
ELIZABETHTON   MOCLDY    43  28  56 NW9       29.82F
$$

TNZ012-013-036-069-073-074-272000-
CENTRAL EAST TENNESSEE

CITY           SKY/WX    TMP DP  RH WIND       PRES   REMARKS
KNOXVILLE      PTSUNNY   50  29  44 N10G16    29.87F
OAK RIDGE      CLOUDY    51  26  37 VRB7      29.90F
GATLINBURG     MOCLDY    46  30  53 NW9       29.87F
MORRISTOWN     PTCLDY    48  34  57 NW12      29.86F
$$

TNZ083-085-099-272000-
SOUTHEAST TENNESSEE

CITY           SKY/WX    TMP DP  RH WIND       PRES   REMARKS
CHATTANOOGA    PTSUNNY   56  29  35 NW12      29.91S
$$

SKY/WX REPORTED AS FAIR MEANS FEW OR NO CLOUDS BELOW
12 THOUSAND FEET.



USA.gov is the U.S. government's official web portal to all federal, state and local government web resources and services.